Location: Salisbury
(38.3600°N, 75.6000°W)
Time: 17:29:11
(UTC-04:00)

Daily predictions for brighter satellites

Satellite Brightness Start Highest point End
(mag) Time Altitude Azimuth Time Altitude Azimuth Time Altitude Azimuth
Meteor 2-3 Rocket 4.1 20:10:00 10° NNW 20:15:42 72° W 20:21:26 10° S
Cosmos 1825 3.5 20:13:13 10° NNE 20:16:18 23° ENE 20:19:22 10° SE
Cosmos 1869 Rocket 3.6 20:15:48 10° N 20:20:18 82° E 20:24:46 10° S
USA 186 2.4 20:18:06 10° SE 20:20:33 29° ENE 20:23:08 10° N
BREEZE-M DEB (TANK) 4.2 20:18:33 10° WNW 20:21:13 36° N 20:26:44 10° ENE
Helios 1A 3.9 20:20:29 10° SE 20:24:13 31° ENE 20:28:00 10° N
ATLAS 5 CENTAUR R/B 3.8 20:19:47 10° N 20:24:30 24° NE 20:29:31 10° E
SL-16 R/B 2.3 20:20:04 10° S 20:25:34 55° ESE 20:31:06 10° NNE
USA 267 3.9 20:19:28 10° NE 20:25:54 61° NW 20:32:18 10° WSW
Resurs 1-3 3.6 20:21:41 10° SSE 20:26:02 70° ENE 20:30:25 10° N
Cosmos 1315 Rocket 2.8 20:23:52 10° N 20:27:57 86° E 20:31:57 10° S
CZ-2D R/B 3.2 20:26:09 10° SSE 20:30:00 72° ENE 20:33:54 10° N
Cosmos 1933 4.5 20:30:12 10° SE 20:33:29 24° E 20:36:47 10° NE
Cosmos 1503 Rocket 4.2 20:28:28 10° N 20:33:37 53° ENE 20:38:41 10° SE
Meteor 2-20 4.5 20:28:00 10° N 20:34:06 70° E 20:40:13 10° SSE
Spot 2 Rocket 3.6 20:31:09 10° SSE 20:36:15 87° WSW 20:41:22 10° NNW
Cosmos 1408 2.9 20:35:09 10° N 20:38:42 44° E 20:42:11 10° SSE
Cosmos 1354 Rocket 4.1 20:33:38 10° N 20:38:52 60° ENE 20:44:02 10° SSE
Cosmos 2242 Rocket 3.6 20:37:29 10° S 20:41:56 62° E 20:46:22 10° NNE
Cosmos 2195 Rocket 4.4 20:39:05 10° N 20:45:12 73° E 20:51:20 10° SSE
Cosmos 1627 Rocket 4.4 20:39:08 10° N 20:45:20 71° E 20:51:26 10° SSE
Cosmos 2279 Rocket 4.1 20:40:03 10° SSE 20:46:04 53° E 20:52:07 10° NNE
ALOS 4.1 20:42:34 10° SSW 20:46:42 31° W 20:50:52 10° NNW
Milstar 3 3.7 20:43:17 10° WSW 20:51:08 38° S 20:55:56 16° SE
Cosmos 1862 3.6 20:50:12 10° N 20:54:06 46° E 20:57:01 16° SSE
Cosmos 220 Rocket 4.1 20:49:57 10° NNW 20:54:27 84° WSW 20:58:50 10° SSE
Meteor 1-29 3.0 20:52:43 10° NNE 20:56:09 56° E 20:59:31 10° S
Envisat 3.1 20:51:22 10° SSE 20:56:19 62° ENE 21:01:20 10° N
USA 234 3.6 20:53:53 15° ESE 20:59:08 54° NE 21:05:28 10° NW
ATLAS CENTAUR R/B 4.3 20:57:02 10° W 20:59:40 20° SW 21:04:31 10° S
Resurs 01 Rocket 3.0 20:57:54 10° SSW 21:02:03 39° W 21:06:14 10° NNW
Intercosmos 25 Rocket 3.1 21:00:22 10° S 21:03:31 80° W 21:07:26 10° N
Cosmos 1939 Rocket 2.8 21:05:54 19° SSE 21:08:39 66° ENE 21:12:39 10° N
OAO 3 Rocket 3.4 21:05:56 10° W 21:10:43 58° S 21:13:18 26° ESE
YAOGAN 6 3.2 21:10:21 30° ESE 21:11:26 37° ENE 21:14:48 10° N
SEDSat Delta rocket 4.1 21:06:40 10° WSW 21:11:33 41° S 21:14:21 25° ESE
Cosmos 2180 Rocket 4.5 21:06:16 10° S 21:12:36 73° E 21:18:55 10° N
Helios 1B rocket 2.9 21:12:06 10° N 21:16:09 62° WNW 21:20:11 10° SSW
Lacrosse 4 Rocket 2.0 21:12:38 10° NW 21:16:54 57° WSW 21:19:57 19° S
Meteor 2-10 Rocket 3.8 21:15:07 10° S 21:20:50 61° E 21:26:32 10° NNE
Atlas Centaur 2 3.2 21:15:14 10° WSW 21:21:40 43° S 21:25:41 25° ESE
Sich 1 Rocket 4.0 21:18:36 10° N 21:22:54 45° E 21:24:14 34° ESE
ERS-1 Rocket 3.1 21:22:05 29° SE 21:24:25 54° ENE 21:29:19 10° N
ERBS 4.4 21:21:53 10° WNW 21:24:38 22° SW 21:26:20 16° SSW
Cosmos 1908 Rocket 3.8 21:21:55 10° N 21:26:08 48° E 21:27:14 38° ESE
SeaSat 1 3.7 21:31:07 23° E 21:32:28 26° NE 21:36:32 10° N
Cosmos 2263 Rocket 2.2 21:28:00 10° NNW 21:33:35 80° WSW 21:36:40 28° SSE
Cosmos 2237 4.4 21:31:30 20° S 21:35:10 47° ESE 21:40:38 10° NE
CZ-4B DEB 4.4 21:38:37 21° SW 21:39:56 29° W 21:42:40 10° NW
Cosmos 1782 Rocket 4.1 21:36:20 10° N 21:40:27 39° ENE 21:40:33 39° E
Cosmos 2322 Rocket 3.9 21:35:25 10° SW 21:40:29 34° WNW 21:45:36 10° N
USA 229 DEB 3.6 21:36:13 10° SSW 21:42:58 72° ESE 21:49:52 10° NE
USA 229 3.6 21:36:20 10° SSW 21:43:05 71° ESE 21:49:58 10° NE
COSMOS 2428 3.0 21:43:29 40° SE 21:44:17 42° ESE 21:49:38 10° NE
Cosmos 1733 Rocket 4.3 21:40:38 10° NNW 21:44:48 40° W 21:48:10 15° SSW
Meteor 1-14 Rocket 4.3 21:40:43 10° N 21:46:21 62° E 21:48:11 42° SE
Cosmos 2360 Rocket 2.3 21:43:39 10° SSW 21:49:17 76° WNW 21:54:59 10° NNE
Okean 2 Rocket 3.9 21:45:20 10° N 21:49:13 36° ENE 21:49:13 36° ENE
Meteor 1-25 Rocket 4.3 21:49:21 10° N 21:54:49 52° ENE 21:55:42 47° ESE
Okean 1-7 3.1 21:56:12 60° ENE 21:56:12 60° ENE 22:00:19 10° NNE
NOAA 11 4.1 21:58:33 49° SSE 22:00:08 83° ENE 22:05:39 10° NNW
MetOp-B 4.0 22:00:03 52° SSE 22:01:23 82° ENE 22:06:46 10° NNW
Cosmos 2322 3.9 21:56:24 10° SSW 22:02:05 70° WNW 22:07:48 10° NNE
SPOT 5 2.8 22:02:05 63° ESE 22:02:27 66° ENE 22:07:05 10° N
Meteor 1-20 Rocket 4.2 22:03:59 10° N 22:09:32 63° E 22:10:06 59° ESE
ATLAS 5 CENTAUR R/B 2.5 22:03:39 10° NW 22:09:44 73° WSW 22:11:35 48° S
Nimbus 7 Rocket 4.3 22:04:35 10° NNE 22:10:31 67° ESE 22:11:42 55° SSE
Cosmos 1703 Rocket 4.1 22:10:27 39° SW 22:11:47 56° W 22:16:09 10° N
Meteor 1-22 4.5 22:10:06 10° N 22:15:29 71° E 22:15:48 69° ESE
ARGOS 3.0 22:15:14 69° SSE 22:15:54 85° ENE 22:21:19 10° NNW
Cosmos 2266 Rocket 4.2 22:13:53 10° NNW 22:20:08 66° W 22:22:35 38° SSW
Meteor 2-6 Rocket 4.4 22:20:54 56° E 22:20:54 56° E 22:26:33 10° NNE
Cosmos 2333 4.1 22:23:21 68° S 22:24:07 83° ESE 22:29:54 10° NNE
Cosmos 2333 Rocket 3.4 22:26:29 29° ENE 22:26:29 29° ENE 22:29:36 10° NE
Cosmos 2237 Rocket 4.0 22:29:25 18° NE 22:29:25 18° NE 22:31:10 10° NE
Cosmos 968 Rocket 4.2 22:22:00 10° NNW 22:26:56 45° WSW 22:27:53 40° SW
Cosmos 2221 Rocket 4.2 22:26:56 49° W 22:27:17 51° W 22:31:37 10° N
H-2A R/B 2.1 22:31:00 65° NNE 22:31:00 65° NNE 22:35:24 10° N
Cosmos 1867 4.0 22:26:05 10° NW 22:31:21 51° WSW 22:31:43 50° SW
Cosmos 2278 Rocket 3.5 22:27:11 10° N 22:31:49 28° NE 22:31:49 28° NE
SL-08 RB Rocket 4.1 22:35:33 63° NW 22:35:33 63° NW 22:39:30 10° NNW
Cosmos 1844 Rocket 2.7 22:30:31 10° NNW 22:35:50 70° NE 22:35:50 70° NE
Cosmos 1782 4.4 22:42:04 33° NNW 22:42:04 33° NNW 22:44:25 10° N
Landsat 7 4.4 22:41:57 50° N 22:41:57 50° N 22:45:34 10° N
USA 234 3.8 22:41:13 40° SSW 22:42:11 43° SW 22:48:21 10° WNW
Cosmos 1244 Rocket 4.3 22:38:13 10° N 22:44:30 89° E 22:44:46 83° SSE
CZ-4C R/B 3.6 22:43:55 10° NNW 22:50:38 41° NE 22:51:55 39° ENE
Cosmos 1553 Rocket 4.0 22:52:37 67° NE 22:52:37 67° NE 22:58:13 10° N
Cosmos 2219 Rocket 2.5 22:54:47 59° NNE 22:54:47 59° NNE 22:59:20 10° NNE
H-2A R/B 3.6 22:57:30 33° N 22:57:30 33° N 22:59:55 10° N
Terra 2.9 22:57:33 41° N 22:57:33 41° N 23:00:42 10° N
Meteor 1-27 Rocket 4.2 22:59:53 53° NNE 22:59:53 53° NNE 23:04:08 10° NNE
SeaSat 1 3.7 23:10:54 35° W 23:10:54 35° W 23:14:25 10° NW
Atlas Centaur 2 3.7 23:03:41 10° WSW 23:08:19 36° SW 23:08:19 36° SW
S3M 4.2 23:22:42 64° NW 23:22:42 64° NW 23:28:13 10° N
Meteor 1-11 Rocket 4.4 23:19:16 10° NNW 23:23:21 50° NNW 23:23:21 50° NNW
NOSS 3-1 (C) 4.1 23:28:28 48° WNW 23:29:00 50° NW 23:35:16 10° NNE
NOSS 3-1 (A) 4.1 23:45:11 50° NNW 23:45:11 50° NNW 23:50:51 10° NNE
ATLAS 2AS CENTAUR R/B 4.1 23:48:54 30° ENE 23:48:54 30° ENE 23:53:10 10° NE
SL-16 R/B 4.0 23:50:52 24° NE 23:50:52 24° NE 23:53:05 10° NNE
